�������l�o���
Date,Time,MP-1(��Sv/h),MP-2(��Sv/h),MP-3(��Sv/h),MP-4(��Sv/h),MP-5(��Sv/h),MP-6(��Sv/h),MP-7(��Sv/h),MP-8(��Sv/h),����,����(m/s),���J
2019/10/11,00:00,0.733,1.043,0.720,1.283,0.941,0.418,0.730,0.689,�k�k��,3.6,�L
2019/10/11,00:10,0.733,1.044,0.719,1.281,0.940,0.419,0.729,0.691,�k�k��,3.1,�L
2019/10/11,00:20,0.733,1.042,0.721,1.284,0.939,0.420,0.728,0.689,�k�k��,3.6,�L
2019/10/11,00:30,0.734,1.041,0.720,1.283,0.941,0.418,0.729,0.689,�k�k��,4.0,�L
2019/10/11,00:40,0.734,1.039,0.720,1.280,0.938,0.420,0.729,0.690,�k�k��,5.2,�L
2019/10/11,00:50,0.733,1.038,0.718,1.279,0.939,0.419,0.728,0.689,�k�k��,4.2,�L
2019/10/11,01:00,0.733,1.038,0.718,1.282,0.936,0.418,0.728,0.689,�k�k��,3.9,�L
2019/10/11,01:10,0.733,1.040,0.718,1.280,0.937,0.419,0.728,0.690,�k�k��,3.6,�L
2019/10/11,01:20,0.733,1.039,0.717,1.283,0.934,0.418,0.728,0.688,�k�k��,3.3,�L
2019/10/11,01:30,0.731,1.034,0.718,1.277,0.932,0.419,0.726,0.688,�k�k��,3.4,�L
2019/10/11,01:40,0.729,1.031,0.715,1.277,0.929,0.419,0.725,0.687,�k�k��,3.6,�L
2019/10/11,01:50,0.729,1.034,0.715,1.278,0.930,0.418,0.725,0.687,�k�k��,4.6,�L
2019/10/11,02:00,0.729,1.031,0.715,1.275,0.929,0.419,0.725,0.688,�k�k��,3.9,�L
2019/10/11,02:10,0.730,1.030,0.715,1.277,0.929,0.418,0.724,0.687,�k�k��,4.5,�L
2019/10/11,02:20,0.729,1.030,0.714,1.278,0.930,0.417,0.725,0.686,�k�k��,5.0,�L
2019/10/11,02:30,0.729,1.030,0.713,1.276,0.928,0.418,0.726,0.687,�k�k��,5.5,�L
2019/10/11,02:40,0.727,1.031,0.713,1.274,0.929,0.418,0.724,0.687,�k�k��,5.2,�L
2019/10/11,02:50,0.728,1.031,0.712,1.276,0.928,0.417,0.723,0.688,�k�k��,6.0,�L
2019/10/11,03:00,0.729,1.028,0.715,1.276,0.928,0.417,0.724,0.687,�k�k��,5.5,�L
2019/10/11,03:10,0.727,1.031,0.714,1.274,0.929,0.418,0.723,0.687,�k�k��,6.0,�L
2019/10/11,03:20,0.728,1.027,0.713,1.275,0.927,0.418,0.724,0.688,�k�k��,5.3,�L
2019/10/11,03:30,0.726,1.027,0.711,1.276,0.927,0.416,0.725,0.687,�k�k��,5.5,�L
2019/10/11,03:40,0.726,1.025,0.712,1.272,0.926,0.416,0.725,0.686,�k�k��,6.0,�L
2019/10/11,03:50,0.726,1.024,0.714,1.269,0.926,0.416,0.722,0.687,�k�k��,6.0,�L
2019/10/11,04:00,0.728,1.023,0.711,1.272,0.925,0.416,0.722,0.686,�k��,6.4,�L
2019/10/11,04:10,0.725,1.025,0.712,1.270,0.925,0.416,0.722,0.688,�k�k��,6.1,�L
2019/10/11,04:20,0.726,1.023,0.712,1.271,0.923,0.418,0.722,0.687,�k��,5.7,�L
2019/10/11,04:30,0.723,1.021,0.709,1.269,0.919,0.416,0.721,0.687,�k��,6.0,�L
2019/10/11,04:40,0.721,1.016,0.708,1.264,0.915,0.417,0.723,0.687,�k��,6.6,�L
2019/10/11,04:50,0.722,1.016,0.708,1.262,0.918,0.415,0.720,0.685,�k��,6.3,�L
2019/10/11,05:00,0.724,1.016,0.706,1.264,0.916,0.414,0.722,0.685,�k��,6.0,�L
2019/10/11,05:10,0.720,1.012,0.706,1.259,0.912,0.415,0.719,0.682,�k��,7.1,�L
2019/10/11,05:20,0.712,0.997,0.700,1.240,0.902,0.411,0.715,0.677,�k�k��,7.4,�L
2019/10/11,05:30,0.712,0.995,0.700,1.238,0.900,0.412,0.716,0.676,�k�k��,6.3,�L
2019/10/11,05:40,0.712,0.996,0.698,1.238,0.900,0.411,0.715,0.677,�k��,6.3,�L
2019/10/11,05:50,0.710,0.993,0.698,1.236,0.898,0.410,0.714,0.677,�k��,5.5,�L
2019/10/11,06:00,0.705,0.986,0.693,1.226,0.891,0.409,0.711,0.674,�k�k��,6.0,�L
2019/10/11,06:10,0.706,0.988,0.693,1.226,0.893,0.408,0.712,0.675,�k��,5.7,�L
2019/10/11,06:20,0.708,0.988,0.692,1.226,0.895,0.409,0.712,0.675,�k��,6.1,�L
2019/10/11,06:30,0.706,0.987,0.692,1.227,0.894,0.410,0.710,0.674,�k�k��,5.2,�L
2019/10/11,06:40,0.708,0.988,0.692,1.224,0.893,0.411,0.711,0.674,�k��,6.4,�L
2019/10/11,06:50,0.705,0.984,0.690,1.226,0.892,0.409,0.710,0.675,�k��,5.7,�L
2019/10/11,07:00,0.706,0.984,0.691,1.225,0.889,0.407,0.709,0.673,�k��,6.1,�L
2019/10/11,07:10,0.705,0.981,0.688,1.221,0.888,0.408,0.709,0.674,�k��,6.0,�L
2019/10/11,07:20,0.701,0.981,0.689,1.223,0.891,0.409,0.709,0.670,�k�k��,6.0,�L
2019/10/11,07:30,0.706,0.985,0.689,1.223,0.891,0.409,0.711,0.674,�k�k��,5.7,�L
2019/10/11,07:40,0.705,0.984,0.689,1.223,0.892,0.408,0.709,0.674,�k�k��,4.7,�L
2019/10/11,07:50,0.706,0.984,0.688,1.225,0.893,0.408,0.711,0.676,�k�k��,4.9,�L
2019/10/11,08:00,0.708,0.984,0.690,1.223,0.891,0.409,0.710,0.674,�k�k��,4.9,�L
2019/10/11,08:10,0.708,0.989,0.690,1.225,0.892,0.406,0.710,0.673,�k�k��,5.0,��
2019/10/11,08:20,0.706,0.987,0.691,1.224,0.892,0.408,0.711,0.674,�k�k��,5.0,��
2019/10/11,08:30,0.708,0.989,0.692,1.229,0.892,0.409,0.711,0.676,�k�k��,3.6,�L
2019/10/11,08:40,0.708,0.987,0.689,1.227,0.892,0.409,0.712,0.676,�k�k��,4.0,��
2019/10/11,08:50,0.706,0.988,0.690,1.227,0.897,0.409,0.713,0.676,�k�k��,3.8,��
2019/10/11,09:00,0.707,0.987,0.690,1.225,0.894,0.409,0.710,0.676,�k�k��,4.3,��
2019/10/11,09:10,0.708,0.988,0.692,1.228,0.896,0.409,0.711,0.676,�k�k��,4.3,��
2019/10/11,09:20,0.707,0.989,0.690,1.228,0.895,0.408,0.711,0.675,�k�k��,4.3,��
2019/10/11,09:30,0.707,0.989,0.691,1.230,0.895,0.409,0.711,0.675,�k�k��,4.2,��
2019/10/11,09:40,0.709,0.989,0.691,1.231,0.897,0.410,0.712,0.675,�k�k��,3.9,��
2019/10/11,09:50,0.709,0.987,0.691,1.227,0.897,0.410,0.711,0.675,�k�k��,3.3,��
2019/10/11,10:00,0.707,0.990,0.691,1.230,0.896,0.410,0.712,0.675,�k�k��,2.1,��
2019/10/11,10:10,0.710,0.988,0.692,1.228,0.897,0.410,0.712,0.678,�k�k��,3.5,��
2019/10/11,10:20,0.708,0.990,0.692,1.231,0.896,0.409,0.710,0.678,�k�k��,3.8,��
2019/10/11,10:30,0.708,0.988,0.690,1.234,0.899,0.408,0.712,0.676,�k�k��,3.9,��
2019/10/11,10:40,0.709,0.993,0.690,1.234,0.898,0.408,0.712,0.676,�k�k��,3.6,��
2019/10/11,10:50,0.709,0.992,0.691,1.233,0.889,0.409,0.714,0.677,�k�k��,3.3,��
2019/10/11,11:00,0.708,0.993,0.689,1.234,0.891,0.407,0.715,0.676,�k�k��,3.9,��
2019/10/11,11:10,0.709,0.993,0.689,1.231,0.902,0.407,0.716,0.676,�k,4.0,��
2019/10/11,11:20,0.709,0.993,0.690,1.233,0.899,0.408,0.715,0.676,�k,2.8,��
2019/10/11,11:30,0.712,0.994,0.689,1.236,0.901,0.408,0.715,0.675,�k,3.0,��
2019/10/11,11:40,0.709,0.996,0.690,1.235,0.899,0.409,0.715,0.677,�k,3.8,��
2019/10/11,11:50,0.710,0.997,0.692,1.234,0.899,0.408,0.714,0.676,�k,3.5,��
2019/10/11,12:00,0.710,0.995,0.691,1.236,0.902,0.408,0.715,0.677,�k,3.5,��
2019/10/11,12:10,0.712,0.996,0.691,1.238,0.901,0.406,0.715,0.676,�k�k��,3.2,��
2019/10/11,12:20,0.711,0.997,0.690,1.236,0.899,0.408,0.714,0.677,�k�k��,3.1,��
2019/10/11,12:30,0.710,1.000,0.693,1.236,0.900,0.407,0.717,0.675,�k�k��,2.8,��
2019/10/11,12:40,0.712,0.997,0.691,1.236,0.903,0.409,0.715,0.678,�k�k��,2.7,��
2019/10/11,12:50,0.710,0.999,0.692,1.235,0.903,0.408,0.716,0.676,�k�k��,2.8,�L
2019/10/11,13:00,0.712,0.996,0.692,1.236,0.901,0.409,0.716,0.676,�k�k��,2.5,�L
2019/10/11,13:10,0.709,0.996,0.692,1.238,0.902,0.408,0.714,0.676,�k�k��,2.2,��
2019/10/11,13:20,0.711,0.997,0.691,1.236,0.903,0.407,0.715,0.675,�k,2.6,��
2019/10/11,13:30,0.711,0.998,0.694,1.238,0.901,0.409,0.715,0.676,�k,1.8,�L
2019/10/11,13:40,0.711,0.999,0.694,1.235,0.901,0.409,0.716,0.678,�k,1.9,�L
2019/10/11,13:50,0.711,0.998,0.694,1.239,0.903,0.408,0.716,0.675,�k�k��,1.8,�L
2019/10/11,14:00,0.712,0.997,0.692,1.239,0.904,0.408,0.715,0.677,�k�k��,1.2,�L
2019/10/11,14:10,0.710,0.998,0.690,1.236,0.903,0.409,0.712,0.675,�k�k��,1.4,�L
2019/10/11,14:20,0.706,0.993,0.689,1.236,0.898,0.408,0.712,0.675,�k�k��,1.7,�L
2019/10/11,14:30,0.708,0.990,0.689,1.237,0.897,0.408,0.712,0.674,�k�k��,1.6,�L
2019/10/11,14:40,0.707,0.990,0.690,1.234,0.897,0.407,0.711,0.675,�k�k��,1.7,�L
2019/10/11,14:50,0.706,0.990,0.688,1.234,0.897,0.408,0.713,0.675,�k�k��,1.7,��
2019/10/11,15:00,0.707,0.991,0.689,1.236,0.898,0.409,0.715,0.675,�k�k��,1.8,��
2019/10/11,15:10,0.707,0.992,0.688,1.234,0.900,0.408,0.714,0.675,�k,1.5,��
2019/10/11,15:20,0.706,0.993,0.692,1.236,0.899,0.409,0.714,0.673,�k�k��,0.9,�L
2019/10/11,15:30,0.705,0.997,0.694,1.235,0.901,0.408,0.713,0.674,�k�k��,2.2,�L
2019/10/11,15:40,0.709,0.995,0.693,1.236,0.902,0.408,0.713,0.675,�k�k��,2.3,�L
2019/10/11,15:50,0.707,0.996,0.691,1.237,0.901,0.410,0.714,0.676,�k,1.6,�L
2019/10/11,16:00,0.710,0.997,0.694,1.238,0.900,0.411,0.714,0.676,�k�k��,2.0,�L
2019/10/11,16:10,0.710,0.996,0.692,1.238,0.904,0.410,0.714,0.678,�k,0.8,�L
2019/10/11,16:20,0.709,0.998,0.692,1.238,0.903,0.408,0.714,0.676,�k,2.4,�L
2019/10/11,16:30,0.710,0.999,0.695,1.238,0.902,0.410,0.712,0.677,�k�k��,2.8,�L
2019/10/11,16:40,0.709,0.998,0.693,1.239,0.901,0.410,0.712,0.676,�k,1.8,�L
2019/10/11,16:50,0.710,0.998,0.692,1.237,0.902,0.411,0.713,0.675,�k,2.5,�L
2019/10/11,17:00,0.711,0.998,0.694,1.238,0.901,0.409,0.714,0.676,�k,4.0,�L
2019/10/11,17:10,0.710,1.001,0.694,1.237,0.903,0.409,0.713,0.674,�k�k��,3.9,�L
2019/10/11,17:20,0.710,0.999,0.695,1.239,0.900,0.411,0.714,0.675,�k,3.8,�L
2019/10/11,17:30,0.708,0.997,0.694,1.239,0.900,0.409,0.713,0.676,�k,3.4,�L
2019/10/11,17:40,0.711,0.997,0.694,1.238,0.901,0.410,0.712,0.675,�k,4.1,�L
2019/10/11,17:50,0.710,0.994,0.693,1.235,0.900,0.409,0.713,0.675,�k,3.8,�L
2019/10/11,18:00,0.710,0.996,0.692,1.237,0.900,0.408,0.713,0.675,�k,3.8,�L
2019/10/11,18:10,0.708,0.993,0.692,1.237,0.898,0.408,0.712,0.675,�k,3.6,�L
2019/10/11,18:20,0.709,0.995,0.693,1.235,0.900,0.410,0.713,0.675,�k,3.9,�L
2019/10/11,18:30,0.709,0.994,0.693,1.238,0.900,0.409,0.713,0.675,�k,3.4,��
2019/10/11,18:40,0.709,0.997,0.691,1.236,0.899,0.409,0.714,0.675,�k,3.4,�L
2019/10/11,18:50,0.711,0.996,0.692,1.237,0.901,0.408,0.713,0.674,�k,3.5,��
2019/10/11,19:00,0.711,0.996,0.694,1.237,0.902,0.408,0.713,0.677,�k,2.8,�L
2019/10/11,19:10,0.710,0.998,0.694,1.239,0.900,0.409,0.713,0.676,�k,2.8,�L
2019/10/11,19:20,0.709,0.995,0.692,1.234,0.898,0.408,0.711,0.675,�k,3.1,�L
2019/10/11,19:30,0.708,0.992,0.690,1.230,0.894,0.407,0.711,0.674,�k,3.6,�L
2019/10/11,19:40,0.707,0.993,0.689,1.233,0.896,0.407,0.712,0.674,�k,3.4,�L
2019/10/11,19:50,0.705,0.991,0.691,1.234,0.895,0.407,0.714,0.674,�k,4.1,�L
2019/10/11,20:00,0.708,0.991,0.691,1.233,0.896,0.408,0.711,0.674,�k,4.3,�L
2019/10/11,20:10,0.707,0.992,0.689,1.233,0.897,0.408,0.712,0.675,�k,4.2,�L
2019/10/11,20:20,0.706,0.993,0.691,1.234,0.898,0.409,0.712,0.674,�k�k��,4.5,�L
2019/10/11,20:30,0.707,0.994,0.692,1.233,0.897,0.409,0.711,0.676,�k�k��,3.9,�L
2019/10/11,20:40,0.706,0.991,0.690,1.234,0.898,0.409,0.712,0.675,�k�k��,3.9,�L
2019/10/11,20:50,0.708,0.991,0.690,1.232,0.898,0.409,0.710,0.674,�k�k��,4.5,�L
2019/10/11,21:00,0.709,0.991,0.691,1.233,0.896,0.409,0.711,0.673,�k�k��,3.6,�L
2019/10/11,21:10,0.707,0.991,0.691,1.233,0.897,0.409,0.712,0.673,�k�k��,3.6,�L
2019/10/11,21:20,0.707,0.992,0.690,1.232,0.898,0.408,0.713,0.675,�k�k��,3.8,�L
2019/10/11,21:30,0.708,0.989,0.692,1.235,0.897,0.408,0.711,0.674,�k�k��,4.3,�L
2019/10/11,21:40,0.704,0.991,0.691,1.232,0.898,0.408,0.710,0.674,�k�k��,4.5,�L
2019/10/11,21:50,0.705,0.990,0.689,1.232,0.897,0.408,0.711,0.674,�k�k��,3.9,�L
2019/10/11,22:00,0.702,0.991,0.692,1.230,0.898,0.409,0.711,0.673,�k�k��,4.4,�L
2019/10/11,22:10,0.704,0.990,0.689,1.229,0.896,0.409,0.711,0.674,�k�k��,4.4,�L
2019/10/11,22:20,0.703,0.989,0.690,1.232,0.897,0.408,0.710,0.675,�k�k��,4.3,�L
2019/10/11,22:30,0.704,0.989,0.690,1.233,0.894,0.409,0.711,0.674,�k�k��,4.3,�L
2019/10/11,22:40,0.704,0.989,0.690,1.233,0.894,0.406,0.712,0.674,�k�k��,4.2,�L
2019/10/11,22:50,0.704,0.986,0.689,1.229,0.895,0.407,0.710,0.675,�k�k��,3.4,�L
2019/10/11,23:00,0.696,0.981,0.684,1.216,0.886,0.405,0.706,0.672,�k�k��,3.0,�L
2019/10/11,23:10,0.700,0.979,0.684,1.213,0.887,0.406,0.709,0.670,�k�k��,3.8,�L
2019/10/11,23:20,0.700,0.981,0.685,1.216,0.887,0.406,0.708,0.672,�k��,3.3,�L
2019/10/11,23:30,0.700,0.982,0.684,1.220,0.888,0.406,0.708,0.673,�k��,3.6,�L
2019/10/11,23:40,0.700,0.982,0.685,1.218,0.886,0.405,0.709,0.671,�k�k��,3.9,�L
2019/10/11,23:50,0.703,0.982,0.685,1.217,0.888,0.407,0.707,0.670,�k�k��,4.6,�L
